Regional Weather Roundup
Issued by NWS

Home | Current Version | Previous Version | Graphics & Text | Print | Product List | Glossary Off
Versions: 1 2 3 4 5 6 7 8 9 10 11 12 13 14 15 16 17 18 19 20 21 22 23 24 25 26 27 28 29 30 31 32 33 34 35 36 37 38 39 40 41 42 43 44 45 46 47 48 49 50

000
ASUS43 KLSX 240807
RWRMO

WEATHER SUMMARY FOR MISSOURI
NATIONAL WEATHER SERVICE SPRINGFIELD MO
200 AM CST TUE JAN 24 2017

NOTE: "FAIR" INDICATES FEW OR NO CLOUDS BELOW 12,000 FEET WITH NO
       SIGNIFICANT WEATHER AND/OR OBSTRUCTIONS TO VISIBILITY.
       CURRENT SKY AND/OR WEATHER CONDITIONS ARE NOT AVAILABLE FOR
       CHILLICOTHE AND FARMINGTON.

MOZ001>031-035>038-043-044-053-054-240900-
...NORTHERN AND WESTERN MISSOURI...

CITY           SKY/WX    TMP DP  RH WIND       PRES   REMARKS
KANSAS CTY INT CLOUDY    32  28  85 E10       29.79F WCI  24
KANSAS C DTWN  CLEAR     32  30  92 E8        29.81S WCI  25
LEE`S SUMMIT   CLEAR     29  32 100 E8        29.80F HAZE    WCI  21
ST JOSEPH      CLEAR     30  29  96 E6        29.82S WCI  24
CHILLICOTHE      N/A     31  30  96 CALM      29.87R
KIRKSVILLE     CLOUDY    31  29  92 CALM      29.87R

$$
MOZ066>068-077>081-088>096-101>105-240900-
...SOUTHWEST MISSOURI...

CITY           SKY/WX    TMP DP  RH WIND       PRES   REMARKS
SPRINGFIELD    CLEAR     36  31  82 SE10      29.79F WCI  28
JOPLIN         CLEAR     39  33  79 SE9       29.76F
BRANSON        CLEAR     39  32  75 SE9       29.82S

$$
MOZ032>034-039>042-045>050-055>058-069>072-240900-
...CENTRAL MISSOURI...

CITY           SKY/WX    TMP DP  RH WIND       PRES   REMARKS
COLUMBIA       CLOUDY    33  30  88 E6        29.86S WCI  28
JEFFERSON CITY CLOUDY    33  30  88 E3        29.88S
ROLLA          PTCLDY    25  25 100 E5        29.84R FOG     WCI  19
SEDALIA        CLEAR     29  27  92 E6        29.86R FOG     WCI  23
WHITEMAN AFB   CLEAR     29  29 100 E7        29.82S WCI  22
WARRENSBURG    CLEAR     28  28 100 NE7       29.83S FOG     WCI  21
OSAGE BEACH    CLEAR     27  26  96 CALM      29.87R FOG

$$
MOZ051-052-059>065-240900-
...EAST CENTRAL MISSOURI...

CITY           SKY/WX    TMP DP  RH WIND       PRES   REMARKS
ST LOUIS INTL  CLOUDY    40  31  70 NW3       29.88R
SPIRIT OF STL  CLOUDY    40  34  79 N3        29.87R
ST CHARLES     CLOUDY    39  32  76 CALM      29.87S

$$
MOZ072>076-082>087-097>100-106>115-240900-
...SOUTH CENTRAL AND SOUTHEAST MISSOURI...

CITY           SKY/WX    TMP DP  RH WIND       PRES   REMARKS
CAPE GIRARDEAU CLOUDY    33  32  96 SW3       29.89R
FARMINGTON     CLEAR     27  26  96 CALM      29.87R
POPLAR BLUFF   CLEAR     31  30  96 CALM      29.89R
WEST PLAINS    CLOUDY    29  26  89 CALM      29.86S

$$



USA.gov is the U.S. government's official web portal to all federal, state and local government web resources and services.